Estación de Los Colihues

Ultimos registro cada 15 minutos 83
Estación Fecha / Hora Temperatura Humedad Lluvia Velocidad Dirección Radiación Presion
83 Los Colihues 02-09-2026 20:30 9,1 84,3 0 0 285 0,6 1013,6
82 Los Colihues 02-09-2026 20:15 9,3 84,2 0 0 282 0,6 1013,5
81 Los Colihues 02-09-2026 20:00 9,1 85,2 0 0 291 0,6 1013,2
80 Los Colihues 02-09-2026 19:45 9,2 83,8 0 0 291 0,6 1013,3
79 Los Colihues 02-09-2026 19:30 9,6 82,9 0 0 291 0,6 1013,2
78 Los Colihues 02-09-2026 19:15 10 81,8 0 0 291 0,6 1012,9
77 Los Colihues 02-09-2026 19:00 11,1 76,8 0 0 292 0,6 1012,7
76 Los Colihues 02-09-2026 18:45 11,4 76,3 0 0 295 0,6 1012,4
75 Los Colihues 02-09-2026 18:30 12 74,2 0 0 295 4,4 1012,2
74 Los Colihues 02-09-2026 18:15 12,7 72,8 0 0 296 14,4 1011,9
73 Los Colihues 02-09-2026 18:00 14 68,9 0 0 303 33,1 1011,7
72 Los Colihues 02-09-2026 17:45 14,6 63 0 1 296 83,1 1011,5
71 Los Colihues 02-09-2026 17:30 15 60,8 0 1 306 130,6 1011,4
70 Los Colihues 02-09-2026 17:15 15,6 60,2 0 1 292 181,9 1011,1
69 Los Colihues 02-09-2026 17:00 15,8 60,9 0 1 296 248,1 1010,8
68 Los Colihues 02-09-2026 16:45 16,7 62,9 0 0,5 305 320,6 1010,7
67 Los Colihues 02-09-2026 16:30 16 61 0 0,5 293 54,4 1010,6
66 Los Colihues 02-09-2026 16:15 15,7 67,3 0 0,5 292 443,1 1010,4
65 Los Colihues 02-09-2026 16:00 16,2 62,6 0 1,5 275 218,1 1010,5
64 Los Colihues 02-09-2026 15:45 16 59,3 0 1,5 286 551,9 1010,4
63 Los Colihues 02-09-2026 15:30 16,1 66,7 0 1 288 491,9 1010,2
62 Los Colihues 02-09-2026 15:15 15,4 70,4 0 1 271 545,6 1010,1
61 Los Colihues 02-09-2026 15:00 14,7 73,2 0 1 263 283,1 1010,5
60 Los Colihues 02-09-2026 14:45 14,6 72,2 0 1 277 281,9 1010,2
59 Los Colihues 02-09-2026 14:30 15,3 73,8 0 1 292 340,6 1009,8
58 Los Colihues 02-09-2026 14:15 15,3 78 0 1 270 415,6 1009,9
57 Los Colihues 02-09-2026 14:00 14,9 76,7 0 0,5 284 359,4 1009,8
56 Los Colihues 02-09-2026 13:45 14,3 84,8 0 0 268 305,6 1010,1
55 Los Colihues 02-09-2026 13:30 13,6 90,7 0 0 355 74,4 1010,7
54 Los Colihues 02-09-2026 13:15 13,7 88,3 0 0 340 86,9 1010,2
53 Los Colihues 02-09-2026 13:00 14,1 90,2 0 1 344 211,9 1010,3
52 Los Colihues 02-09-2026 12:45 13,8 90,4 0 1 355 390,6 1010
51 Los Colihues 02-09-2026 12:30 13,4 93 0 0,5 352 364,4 1010,3
50 Los Colihues 02-09-2026 12:15 13,2 94,2 0 0,5 17 280,6 1010,1
49 Los Colihues 02-09-2026 12:00 12,6 95,5 0 1 6 300,6 1010,3
48 Los Colihues 02-09-2026 11:45 12,4 96,1 0 0,5 7 191,9 1010,3
47 Los Colihues 02-09-2026 11:30 12,1 97,2 0 1 3 211,9 1010,3
46 Los Colihues 02-09-2026 11:15 11,7 98,2 0 0,5 8 115,6 1010,5
45 Los Colihues 02-09-2026 11:00 11,6 99 0 0,5 7 176,9 1010,2
44 Los Colihues 02-09-2026 10:45 11,5 98,9 0,2 0,5 355 83,1 1010,6
43 Los Colihues 02-09-2026 10:30 11,5 98,6 0,2 0,5 7 83,1 1010,5
42 Los Colihues 02-09-2026 10:15 11,4 98 0 1 31 141,9 1010,1
41 Los Colihues 02-09-2026 10:00 11,2 99 0,2 0,5 39 129,4 1010
40 Los Colihues 02-09-2026 09:45 10,9 99,2 0,2 0,5 31 90,6 1009,9
39 Los Colihues 02-09-2026 09:30 10,7 99,3 0 0,5 27 41,9 1010,1
38 Los Colihues 02-09-2026 09:15 10,8 99,6 0,6 0,5 37 40,6 1009,9
37 Los Colihues 02-09-2026 09:00 10,6 99,3 0,2 0,5 21 39,4 1009,9
36 Los Colihues 02-09-2026 08:45 10,6 99,6 0,4 0 10 34,4 1009,9
35 Los Colihues 02-09-2026 08:30 10,5 99,7 0,4 0 24 21,9 1009,7
34 Los Colihues 02-09-2026 08:15 10,5 99,5 0,4 0 27 21,9 1009,4
33 Los Colihues 02-09-2026 08:00 10,4 99,6 0 0 35 8,1 1009,4
32 Los Colihues 02-09-2026 07:45 10,4 99,7 0,2 0,5 42 8,1 1009
31 Los Colihues 02-09-2026 07:30 10,4 99,7 0,6 0 38 5,6 1009,1
30 Los Colihues 02-09-2026 07:15 10,3 99,6 0,2 0 32 0,6 1009,4
29 Los Colihues 02-09-2026 07:00 10,3 99,5 0,6 0 38 0,6 1009,2
28 Los Colihues 02-09-2026 06:45 10,3 99,3 0,6 0 27 0,6 1009,2
27 Los Colihues 02-09-2026 06:30 10,2 99,3 0 0 45 0,6 1009
26 Los Colihues 02-09-2026 06:15 10,1 99,4 0,4 0,5 69 0,6 1008,8
25 Los Colihues 02-09-2026 06:00 10 99,6 0,6 0 48 0,6 1009
24 Los Colihues 02-09-2026 05:45 10 99,3 0 0 44 0,6 1009,3
23 Los Colihues 02-09-2026 05:30 9,9 99,4 0,4 0,5 58 0,6 1008,8
22 Los Colihues 02-09-2026 05:15 9,8 99,6 0,6 0 305 0,6 1009,2
21 Los Colihues 02-09-2026 05:00 9,8 99,2 1,6 0 260 0,6 1009,4
20 Los Colihues 02-09-2026 04:45 10 98 1,6 0 253 0,6 1009,8
19 Los Colihues 02-09-2026 04:30 10 97 0,2 0 256 0,6 1009,4
18 Los Colihues 02-09-2026 04:15 10,1 96 0 0 254 0,6 1008,8
17 Los Colihues 02-09-2026 04:00 9,9 97,9 0 0 250 0,6 1008,5
16 Los Colihues 02-09-2026 03:45 9,8 98,5 0 0 250 0,6 1008,3
15 Los Colihues 02-09-2026 03:30 9,7 98,5 0 0 250 0,6 1008,1
14 Los Colihues 02-09-2026 03:15 9,5 99,3 0 0 248 0,6 1008,6
13 Los Colihues 02-09-2026 03:00 9,5 99,5 0 0 247 0,6 1008,6
12 Los Colihues 02-09-2026 02:45 9 99,5 0 0 247 0,6 1008,8
11 Los Colihues 02-09-2026 02:30 8,8 99,4 0 0 247 0,6 1008,8
10 Los Colihues 02-09-2026 02:15 8,3 99,5 0 0 247 0,6 1008,9
9 Los Colihues 02-09-2026 02:00 8,2 99,3 0 0 247 0,6 1008,9
8 Los Colihues 02-09-2026 01:45 7,8 99,2 0 0 247 0,6 1009,1
7 Los Colihues 02-09-2026 01:30 7,4 98,9 0 0 247 0,6 1009,1
6 Los Colihues 02-09-2026 01:15 8,1 99 0 0 247 0,6 1009,6
5 Los Colihues 02-09-2026 01:00 7,9 98,7 0 0 247 0,6 1009,1
4 Los Colihues 02-09-2026 00:45 8,5 98,5 0 0 247 0,6 1009,6
3 Los Colihues 02-09-2026 00:30 9,1 98,6 0 0 247 0,6 1009,8
2 Los Colihues 02-09-2026 00:15 9,1 98 0 0 247 0,6 1010
1 Los Colihues 02-09-2026 00:00 9,3 98 0 0 247 0,6 1010